[[{"header":{"parameterUnit":"m.s-1","parameterCategory":1,"la1":30.2991,"la2":30.254,"lo1":-89.0895,"lo2":-89.0444,"dy":0.0017,"dx":0.0017,"nx":28,"ny":28,"refTime":"2025-02-06T09:00:00:Z","depth":0,"parameterNumber":2,"parameterNumberName":"U-component_of_WINDS"},"data":[0,0,0,0,0,0,0,0,0,0,0,0,0,0,0,0,0,0,0,0,0,0,0,0,0,0,0,0,0,0,0,0,0,0,0,0,0,0,0,0,0,0,0,0,0,0,0,0,0,0,0,0,0,0,0,0,0,0,0.1334,0.1335,0,0.1367,0.1368,0.1368,0.1399,0.14,0.14,0.14,0.1432,0.1432,0.1433,0,0,0,0,0,0,0,0,0,0,0,0,0,0.1296,0.1297,0.1334,0.1335,0.1335,0.1367,0.1368,0.1368,0.1399,0.14,0.14,0.1401,0.1432,0.1432,0.1433,0,0,0,0,0,0,0,0,0,0,0,0,0,0.1319,0.1297,0.1334,0.1355,0.1357,0.1367,0.1368,0.1368,0.1399,0.14,0.14,0.1401,0.1431,0.1432,0.1433,0.1425,0,0,0.1435,0.1435,0,0,0,0,0,0,0,0,0.1318,0.1321,0.1351,0.1353,0.1356,0.138,0.1366,0.1387,0.1399,0.1383,0.14,0.1401,0.1414,0.1416,0.1421,0.1427,0.1428,0.1435,0.1435,0.1436,0.1436,0,0,0,0,0,0,0,0.1316,0.1319,0.1347,0.1352,0.1354,0.1361,0.1365,0.137,0.1395,0.1384,0.1387,0.139,0.1415,0.142,0.1422,0.1428,0.1435,0.1436,0.1436,0.1436,0.143,0.1429,0,0,0,0,0,0,0.1312,0.1318,0.1346,0.1348,0.1338,0.1362,0.1366,0.1371,0.1395,0.1399,0.139,0.1392,0.1419,0.1421,0.1423,0.1416,0.1436,0.1436,0.1437,0.143,0.1429,0.1429,0,0,0,0,0,0,0.1311,0.1314,0.1345,0.1334,0.1338,0.1362,0.1368,0.1372,0.1377,0.1399,0.1403,0.139,0.1419,0.1422,0.1425,0.1417,0.1437,0.1437,0.1431,0.143,0.1429,0.1401,0,0,0,0,0,0,0.131,0.1314,0.1311,0.1334,0.1339,0.1347,0.1367,0.1372,0.1378,0.1381,0.1401,0.1404,0.142,0.1423,0.1425,0.1419,0.1438,0.1432,0.143,0.1429,0.1403,0.1399,0.1396,0,0,0,0,0,0.1308,0.1301,0.1311,0.1314,0.1337,0.1346,0.1349,0.1368,0.1377,0.1375,0.1389,0.1404,0.1418,0.1423,0.1426,0.1419,0.1432,0.1431,0.143,0.1404,0.14,0.1396,0,0,0,0,0,0,0.1277,0.1305,0.1316,0.1316,0.1329,0.1351,0.1349,0.1363,0.1372,0.1374,0.1396,0.14,0.14,0.141,0.1416,0.1413,0.1427,0.1426,0.1407,0.1403,0.14,0.1397,0.1438,0,0,0,0,0,0.127,0.1276,0.13,0.1298,0.1304,0.1325,0.133,0.1344,0.1357,0.1362,0.1377,0.1388,0.1396,0.14,0.1408,0.1404,0.1409,0.1401,0.1398,0.1395,0.1394,0.1393,0.1389,0.1424,0.1424,0.1424,0,0,0.1256,0.1272,0.1274,0.1292,0.1304,0.1309,0.133,0.1334,0.1338,0.1363,0.1366,0.1377,0.1392,0.1391,0.1392,0.1399,0.1385,0.1393,0.1391,0.1391,0.1391,0.1388,0.1385,0.1424,0.1424,0.1424,0,0,0.1233,0.1246,0.1246,0.1257,0.1274,0.1289,0.1289,0.1309,0.1318,0.1322,0.1341,0.1345,0.1357,0.1367,0.1373,0.1355,0.1368,0.1356,0.134,0.1338,0.1336,0.1333,0.1327,0.1324,0.1355,0.1355,0.1355,0,0.1213,0.1223,0.1244,0.1248,0.1255,0.1279,0.1278,0.1288,0.1306,0.131,0.1319,0.1334,0.1346,0.1348,0.1343,0.1348,0.1348,0.1354,0.1335,0.1332,0.1331,0.1324,0.1322,0.1354,0.1354,0.1354,0.1354,0,0.1197,0.1204,0.1201,0.122,0.1227,0.1228,0.1249,0.1254,0.1266,0.128,0.1283,0.1298,0.1309,0.1311,0.1323,0.1315,0.1319,0.1331,0.1345,0.1325,0.132,0.1318,0.1352,0.1352,0.1353,0.1353,0,0,0.1155,0.1186,0.1185,0.1194,0.1214,0.1219,0.1222,0.1234,0.1237,0.1249,0.1251,0.1261,0.1272,0.1279,0.1293,0.1292,0.1276,0.1304,0.1304,0.1298,0.1268,0.1259,0.1256,0.1285,0.1285,0.1284,0.1266,0,0.1136,0.1143,0.1162,0.1163,0.1169,0.1192,0.1194,0.1207,0.1219,0.1225,0.1239,0.1245,0.126,0.1264,0.1264,0.1278,0.127,0.1279,0.1287,0.1287,0.1283,0.1253,0.1243,0.1226,0.1264,0.1264,0.1264,0,0.1114,0.1126,0.1127,0.1149,0.1152,0.1154,0.1166,0.1172,0.1187,0.1196,0.1204,0.122,0.1223,0.1236,0.1241,0.1247,0.1251,0.1258,0.1258,0.126,0.1274,0.1253,0.1221,0.1218,0.1261,0.1261,0.1261,0,0.1083,0.1099,0.1102,0.1109,0.1134,0.1135,0.1145,0.116,0.1166,0.1177,0.1181,0.1191,0.1197,0.1205,0.1222,0.123,0.1225,0.124,0.1232,0.1231,0.1229,0.1229,0.1197,0.1232,0.1232,0.1232,0.1232,0,0.1059,0.1059,0.1089,0.1091,0.1092,0.1114,0.1113,0.1126,0.1139,0.1143,0.1163,0.1166,0.1189,0.1195,0.1209,0.121,0.1213,0.122,0.1223,0.1218,0.1217,0.1221,0.1223,0.1232,0.1232,0.1232,0.1232,0,0.1025,0.1045,0.105,0.1073,0.1079,0.1078,0.1098,0.11,0.1114,0.1119,0.1122,0.1143,0.1151,0.1169,0.1182,0.1191,0.1189,0.1195,0.1184,0.1186,0.1178,0.1178,0.1146,0.1143,0.118,0.118,0.118,0,0.1008,0.1009,0.1033,0.1038,0.1047,0.1055,0.1061,0.1083,0.1089,0.1106,0.1106,0.1115,0.1124,0.1136,0.1152,0.1161,0.1168,0.1156,0.117,0.1164,0.1168,0.1168,0.1168,0.1153,0.1153,0.1152,0.1152,0,0.0976,0.0987,0.0996,0.1009,0.1016,0.1027,0.1039,0.1041,0.1066,0.1071,0.108,0.1087,0.11,0.1109,0.1121,0.1131,0.1145,0.1148,0.1147,0.1141,0.1134,0.1138,0.1176,0.1148,0.1149,0.1149,0.1149,0.1149,0.095,0.0952,0.097,0.0979,0.0991,0.1002,0.1005,0.102,0.1028,0.1041,0.1053,0.1061,0.1075,0.1093,0.1102,0.1108,0.1115,0.1113,0.1113,0.1112,0.1109,0.1134,0.111,0.111,0.111,0.111,0.1111,0,0.092,0.0932,0.0941,0.0958,0.0965,0.0979,0.0993,0.0998,0.1005,0.1018,0.1027,0.1037,0.1046,0.1063,0.1073,0.1075,0.1081,0.1077,0.1076,0.1078,0.1102,0.1102,0.1071,0.1071,0.1071,0.1071,0.1071,0.1071,0.0905,0.0909,0.0921,0.0931,0.0943,0.0952,0.0958,0.0968,0.0979,0.0989,0.0997,0.1009,0.1023,0.1035,0.1044,0.1049,0.1051,0.1044,0.1051,0.1073,0.1077,0.108,0.108,0.1045,0.1045,0.1027,0.1027,0.1026]},{"header":{"parameterUnit":"m.s-1","parameterCategory":1,"la1":30.2991,"la2":30.254,"lo1":-89.0895,"lo2":-89.0444,"dy":0.0017,"dx":0.0017,"nx":28,"ny":28,"refTime":"2025-02-06T09:00:00:Z","depth":0,"parameterNumber":3,"parameterNumberName":"V-component_of_WINDS"},"data":[0,0,0,0,0,0,0,0,0,0,0,0,0,0,0,0,0,0,0,0,0,0,0,0,0,0,0,0,0,0,0,0,0,0,0,0,0,0,0,0,0,0,0,0,0,0,0,0,0,0,0,0,0,0,0,0,0,0,1.7856,1.7857,0,1.7904,1.7905,1.7905,1.7926,1.7926,1.7926,1.7926,1.7973,1.7975,1.7976,0,0,0,0,0,0,0,0,0,0,0,0,0,1.7782,1.7783,1.7856,1.7857,1.7858,1.7904,1.7905,1.7905,1.7926,1.7926,1.7926,1.7926,1.7973,1.7975,1.7976,0,0,0,0,0,0,0,0,0,0,0,0,0,1.7821,1.7784,1.7856,1.7874,1.7876,1.7904,1.7905,1.7905,1.7926,1.7926,1.7926,1.7926,1.7972,1.7974,1.7976,1.7991,0,0,1.7982,1.7983,0,0,0,0,0,0,0,0,1.7818,1.7823,1.787,1.7872,1.7875,1.7909,1.7896,1.7934,1.7926,1.7907,1.7926,1.7926,1.7952,1.7956,1.7965,1.7993,1.7995,1.7983,1.7984,1.7985,1.7985,0,0,0,0,0,0,0,1.7816,1.7821,1.7875,1.7871,1.7874,1.7878,1.7884,1.7903,1.7929,1.7908,1.791,1.7915,1.7953,1.7963,1.7966,1.7996,1.7983,1.7984,1.7986,1.7986,1.8038,1.8038,0,0,0,0,0,0,1.781,1.7819,1.7874,1.7877,1.7846,1.788,1.7886,1.7898,1.7929,1.7934,1.7916,1.7916,1.7959,1.7964,1.7968,1.7987,1.7985,1.7987,1.7988,1.8038,1.8038,1.8038,0,0,0,0,0,0,1.7809,1.7815,1.7872,1.7848,1.7856,1.7881,1.7895,1.7899,1.7909,1.7935,1.7939,1.7921,1.796,1.7965,1.7985,1.7989,1.7988,1.7989,1.8038,1.8038,1.8038,1.8025,0,0,0,0,0,0,1.7806,1.7814,1.782,1.7848,1.7857,1.7888,1.7895,1.79,1.7912,1.7914,1.7941,1.7945,1.796,1.7982,1.7987,1.7991,1.7991,1.8037,1.8038,1.8038,1.8025,1.8024,1.8024,0,0,0,0,0,1.7804,1.7814,1.782,1.7827,1.7865,1.7889,1.7894,1.7911,1.7912,1.7919,1.7935,1.7944,1.7987,1.7984,1.799,1.7995,1.8037,1.8038,1.8038,1.8025,1.8025,1.8024,0,0,0,0,0,0,1.7786,1.7818,1.7825,1.7846,1.7864,1.7892,1.79,1.791,1.7928,1.7928,1.7949,1.7955,1.7973,1.7986,1.7981,1.801,1.8013,1.8015,1.8001,1.8001,1.8,1.7997,1.7993,0,0,0,0,0,1.7784,1.7801,1.7828,1.7843,1.7852,1.7875,1.7886,1.7897,1.7917,1.7925,1.7943,1.7962,1.798,1.7991,1.8009,1.8027,1.8033,1.8033,1.8033,1.8032,1.8033,1.8044,1.8044,1.8039,1.8039,1.8039,0,0,1.7781,1.7801,1.781,1.784,1.7856,1.7873,1.7881,1.7898,1.7911,1.7928,1.7948,1.7961,1.7984,1.8003,1.8012,1.8014,1.8036,1.8033,1.8032,1.8034,1.8044,1.8045,1.8045,1.804,1.804,1.804,0,0,1.7784,1.7801,1.7815,1.7831,1.7855,1.787,1.7873,1.7899,1.7909,1.793,1.7943,1.7958,1.7988,1.8003,1.8015,1.8023,1.8032,1.8028,1.8026,1.8036,1.8037,1.8037,1.804,1.8041,1.8029,1.8029,1.8029,0,1.7777,1.7803,1.7821,1.7838,1.7851,1.7867,1.7882,1.7896,1.7924,1.7932,1.7934,1.7973,1.7989,1.8011,1.8014,1.8022,1.8027,1.8026,1.8035,1.8036,1.8036,1.804,1.8041,1.8029,1.8029,1.8029,1.8029,0,1.7793,1.7811,1.782,1.7847,1.7861,1.7876,1.7897,1.7908,1.7918,1.7933,1.7953,1.7973,1.7995,1.8001,1.8011,1.8026,1.8026,1.8031,1.8035,1.8036,1.8039,1.8041,1.8028,1.8028,1.8028,1.8028,0,0,1.7786,1.7824,1.7827,1.7839,1.7867,1.7881,1.7897,1.7919,1.7928,1.7947,1.7961,1.7986,1.7991,1.8004,1.8016,1.8025,1.803,1.8029,1.803,1.8029,1.8047,1.8043,1.8044,1.8036,1.8036,1.8037,1.8045,0,1.7793,1.7823,1.784,1.7863,1.788,1.7895,1.7909,1.7927,1.7941,1.7957,1.7971,1.7989,1.7994,1.8002,1.8012,1.8028,1.8034,1.8027,1.8049,1.805,1.8043,1.8046,1.8042,1.8049,1.8047,1.8047,1.8047,0,1.7805,1.7824,1.7849,1.7875,1.7882,1.7895,1.7916,1.7931,1.7952,1.7961,1.7976,1.7988,1.8005,1.8006,1.803,1.8025,1.8034,1.8044,1.8044,1.8047,1.8049,1.8049,1.8052,1.8053,1.8049,1.8049,1.8049,0,1.7798,1.783,1.7849,1.7859,1.789,1.7898,1.7911,1.7932,1.7944,1.7962,1.797,1.799,1.8001,1.8016,1.8033,1.8032,1.8055,1.8058,1.8063,1.8062,1.8067,1.8067,1.8072,1.8073,1.8073,1.8073,1.8073,0,1.7804,1.7819,1.7846,1.7858,1.7874,1.7893,1.7909,1.7923,1.7942,1.7956,1.797,1.7983,1.8004,1.802,1.8033,1.805,1.8055,1.8063,1.8066,1.8062,1.8061,1.8069,1.8069,1.8073,1.8073,1.8073,1.8073,0,1.7799,1.7818,1.784,1.7867,1.7874,1.7885,1.7908,1.792,1.7934,1.7952,1.7957,1.798,1.7999,1.8017,1.8042,1.8051,1.8068,1.8073,1.8062,1.8064,1.8068,1.8067,1.8078,1.8081,1.808,1.808,1.808,0,1.7802,1.7814,1.7842,1.7853,1.7866,1.7883,1.7896,1.7915,1.7927,1.7952,1.796,1.798,1.7998,1.8027,1.8045,1.8064,1.8069,1.8072,1.8072,1.8067,1.807,1.8069,1.807,1.8072,1.8071,1.8071,1.8071,0,1.7805,1.7814,1.7832,1.7853,1.7868,1.7885,1.7903,1.7911,1.7933,1.7946,1.7966,1.798,1.8005,1.8025,1.8046,1.8059,1.8069,1.8071,1.8073,1.8069,1.8062,1.8066,1.8061,1.8071,1.8071,1.8071,1.8071,1.8071,1.7804,1.7815,1.7837,1.7857,1.7872,1.7889,1.7901,1.7917,1.7934,1.7957,1.7967,1.7987,1.8007,1.8037,1.805,1.8065,1.8067,1.8071,1.8071,1.8072,1.8071,1.806,1.8069,1.8069,1.8069,1.8069,1.8069,0,1.7808,1.7823,1.7841,1.7866,1.7881,1.7889,1.7909,1.7921,1.7939,1.7957,1.7974,1.7997,1.8016,1.8035,1.8055,1.8064,1.8069,1.8069,1.8068,1.8071,1.8068,1.8064,1.8064,1.8064,1.8064,1.8064,1.8064,1.8064,1.7812,1.7832,1.7843,1.787,1.7885,1.7905,1.7916,1.7931,1.7946,1.7971,1.7987,1.8,1.8018,1.804,1.8057,1.8063,1.8069,1.8068,1.8074,1.8071,1.8071,1.8072,1.8068,1.8069,1.8069,1.8076,1.8076,1.8076]}]]